SCP
0 0 0 0 0 0 0 0 0 0 0 0 0 0 0 0 0 0 0 0 0 0 0 0 0 0 0 0 0 0 0 0 0 0 0 0 1 1
0 0 0 0 0 0 0 -0 -0 -0 0 0 0 -0 -0 -0 0 0 0 0 0 0 0 0 0 0 0 0 0 0 0 0 0 0 0 0 1 1
0 0 0 0 0 0 0 0 0 -0 0 0 0 0 0 0 -0 0 0 0 0 0 0 0 0 0 0 0 0 0 0 0 0 0 0 0 0 1
0 0 0 0 0 0 0 0 0 -0 0 0 0 0 -0 -0 -0 0 0 0 0 0 0 0 0 0 0 0 0 0 0 0 0 0 0 0 0 0
0 0 0 0 0 0 0 0 0 0 0 0 0 0 0 0 -0 0 -0 -0 0 0 0 0 0 0 0 0 0 0 0 0 0 0 0 0 0 0
0 0 0 0 0 0 0 -0 0 0 0 0 0 0 0 0 0 0 0 0 0 0 0 0 0 0 0 0 0 0 0 0 0 0 0 0 0 0
0 0 0 0 0 -0 0 0 -0 0 0 0 0 0 0 0 0 0 0 0 0 0 0 0 0 0 0 0 0 0 0 0 0 0 0 0 0 0
0 0 0 0 0 -0 -0 -0 -0 0 0 0 0 0 0 0 0 0 0 0 0 0 0 0 0 0 0 0 0 0 0 0 0 0 0 0 0 0
0 0 0 0 0 0 0 -0 -0 -0 -0 -0 0 0 0 0 0 0 0 0 0 0 0 0 0 0 0 0 0 0 0 0 0 0 0 0 0 0
0 0 0 0 0 0 0 0 0 0 0 -0 0 0 0 0 0 0 0 0 0 0 0 0 0 0 0 0 0 0 0 0 0 0 0 0 0 0
0 0 0 0 0 0 0 0 0 0 0 0 0 0 0 0 0 0 0 0 0 0 0 0 0 0 0 0 0 0 0 0 0 0 0 0 0 0
0 0 0 0 0 0 0 0 0 0 0 0 0 -0 -0 -0 0 0 0 0 0 0 0 0 0 0 0 0 0 0 0 0 0 0 0 0 0 0
0 0 0 0 0 0 0 0 0 0 0 0 0 0 0 0 0 0 0 0 0 0 0 0 0 0 0 0 0 0 0 0 0 0 0 0 0 0
0 0 0 0 0 0 0 0 0 0 0 0 0 0 0 0 -0 0 0 0 0 0 0 0 0 0 0 0 0 0 0 0 0 0 0 0 0 0
0 0 0 0 0 0 0 0 -0 0 0 0 0 0 0 0 0 0 0 0 0 0 0 0 0 0 0 0 0 0 0 0 0 0 0 0 0 0
0 0 0 0 0 0 0 0 -0 -0 0 0 0 0 -0 0 0 0 0 0 0 0 0 0 0 0 0 0 0 0 0 0 0 0 0 0 0 0
0 0 0 0 0 0 0 0 0 0 0 0 0 0 0 0 0 0 0 0 0 0 0 0 0 0 0 0 0 0 0 0 0 0 0 0 0 0
0 0 0 0 0 0 0 0 0 0 0 0 0 0 0 0 0 0 0 0 0 0 0 0 0 0 0 0 0 0 0 0 0 0 0 0 0 0
0 0 0 0 0 0 0 0 0 0 0 -0 0 0 0 0 0 0 0 0 0 0 0 0 0 0 0 0 0 0 0 0 0 0 0 0 0 0
0 0 0 0 0 0 0 0 0 0 0 0 0 0 0 0 0 0 0 0 0 0 0 0 0 0 0 0 0 0 0 0 0 0 0 0 0 0
0 0 0 0 0 0 0 0 0 0 0 0 0 0 0 0 0 0 0 0 0 0 0 0 0 0 0 0 0 0 0 0 0 0 0 0 0 0
0 0 0 0 0 0 0 0 0 0 0 0 0 0 0 0 0 0 0 0 0 0 0 0 0 0 0 0 -0 0 0 0 0 0 0 0 0 0
0 0 0 0 0 0 0 0 0 0 0 0 -0 0 0 0 0 0 0 0 0 0 0 0 0 0 0 0 0 0 0 0 0 0 0 0 0 0
Wind_Speed_500mb
30 27 25 26 29 34 34 29 26 21 29 19 24 26 20 20 19 15 14 8 14 15 21 26 39 45 58 59 69 77 89 97 94 93 95 101 99 91
33 29 25 28 32 32 33 30 23 22 22 23 25 24 16 11 16 27 20 9 7 4 12 15 22 26 36 46 54 68 73 84 78 80 97 105 99 91
34 29 24 30 30 33 37 31 27 19 25 21 18 15 12 13 16 14 19 18 15 9 4 3 2 19 25 33 39 48 61 76 87 92 107 106 98 89
37 35 26 27 24 25 35 30 26 18 23 16 16 13 11 13 16 15 15 19 22 17 15 8 8 7 10 13 26 42 46 55 43 48 90 90 90 76
37 37 28 26 22 26 34 34 31 13 11 13 12 7 12 12 16 18 14 17 19 19 20 18 15 10 11 10 14 22 31 35 32 26 68 73 74 81
34 37 25 22 25 24 30 36 31 18 2 4 3 2 4 10 10 13 14 20 21 21 18 17 17 14 15 12 14 11 12 24 27 31 37 55 72 78
28 32 25 21 23 24 27 32 30 24 17 10 6 6 6 10 7 7 9 13 17 18 22 15 14 13 15 17 18 15 22 22 22 32 35 40 48 61
27 28 29 20 19 20 22 24 26 22 20 14 10 12 10 11 8 7 11 11 5 12 18 18 17 15 11 12 14 16 16 15 21 42 44 56 64 74
25 28 29 23 20 18 18 21 21 20 20 17 12 10 13 9 4 2 6 4 9 12 14 17 16 16 15 17 12 7 8 10 7 9 19 18 41 32
22 24 27 29 29 24 17 20 16 14 15 15 14 16 12 7 5 3 6 2 3 8 15 16 18 19 22 20 17 13 3 4 2 5 3 17 18 26
23 23 24 25 30 33 24 22 15 10 12 13 13 13 14 5 3 4 4 3 2 6 12 8 12 17 18 22 19 16 12 4 5 5 9 6 18 15
20 21 18 21 27 29 29 24 19 12 8 13 11 10 17 8 10 9 9 7 12 12 4 4 7 10 10 21 20 18 12 6 6 4 8 10 11 20
20 18 17 19 20 28 28 29 24 20 11 14 14 12 11 9 15 10 19 8 3 9 10 11 7 8 8 8 16 16 15 6 2 9 12 12 18 21
19 19 20 24 23 25 28 26 28 20 18 14 14 16 16 13 11 15 15 7 12 13 12 7 11 12 12 11 13 11 7 4 1 6 15 19 21 21
21 23 23 22 24 27 31 29 26 30 22 18 17 20 18 16 15 13 13 11 9 9 12 12 16 20 19 15 15 11 6 3 4 2 8 16 21 23
21 21 26 26 27 28 31 29 23 30 26 25 19 17 22 13 13 10 11 11 13 13 14 13 14 15 22 23 21 9 7 4 3 3 5 15 24 23
25 24 22 28 29 26 24 25 24 26 31 27 23 22 20 13 15 13 16 21 12 13 13 16 17 19 22 23 25 11 11 9 6 4 2 2 19 28
26 25 27 29 33 32 34 31 19 23 27 30 34 24 21 18 19 16 17 14 21 19 17 12 15 13 8 15 14 10 16 13 10 11 8 3 4 6
24 25 30 31 33 36 32 26 18 25 32 35 28 30 26 20 17 14 16 23 18 19 20 24 15 13 13 13 11 13 17 15 16 13 15 10 5 3
27 31 30 31 31 30 27 28 27 21 30 35 32 23 23 18 15 13 8 8 15 19 22 22 18 16 17 14 9 6 7 16 14 12 14 14 12 13
22 24 25 30 31 26 26 26 30 27 29 36 33 33 28 27 19 20 24 16 13 6 7 18 19 20 22 23 18 18 10 10 19 17 11 11 12 12
23 28 28 27 29 30 27 27 25 27 31 37 38 41 36 30 28 25 28 25 25 17 14 27 16 26 26 32 34 26 14 8 18 24 23 18 8 2
22 23 26 30 29 32 28 28 26 27 32 38 46 46 39 33 27 27 25 24 23 24 19 21 23 23 26 21 27 29 23 15 13 23 27 20 16 11
Wind_Direction_500mb
343 344 337 336 337 338 338 332 320 316 317 340 348 344 346 5 10 27 116 188 225 228 232 240 236 235 230 235 231 231 233 236 238 240 238 238 236 232
344 340 340 339 340 339 335 338 322 301 299 312 324 319 1 30 20 18 31 74 102 194 213 233 232 240 231 233 234 238 242 241 236 239 242 232 231 228
346 344 338 328 337 344 348 346 327 301 286 300 297 326 10 22 29 34 30 46 63 44 29 288 172 216 222 233 247 248 244 241 240 257 233 223 224 220
345 341 332 336 339 346 348 348 328 302 285 281 304 315 358 26 39 55 50 37 57 56 50 48 49 326 282 243 242 248 246 235 254 229 201 210 211 213
343 342 339 343 351 354 356 357 358 330 275 240 289 327 347 35 49 58 57 53 55 48 54 51 57 62 49 2 288 211 239 238 242 229 203 206 209 219
345 347 349 350 355 0 4 5 14 23 76 243 274 304 3 26 25 46 45 54 50 51 45 42 45 58 64 59 56 96 220 221 217 225 218 222 221 224
345 357 355 355 351 353 359 12 14 32 40 42 21 347 329 324 329 347 345 11 39 45 46 40 42 38 59 59 60 58 84 115 197 218 238 231 225 219
341 359 356 347 357 357 2 6 14 10 17 12 14 360 344 317 288 326 353 2 356 30 42 42 42 40 35 37 29 36 51 83 103 135 156 169 185 186
342 354 3 358 350 352 353 356 0 8 13 10 355 0 344 329 308 345 319 360 43 27 40 35 35 31 40 43 39 29 50 49 98 118 133 140 142 134
338 350 357 5 4 352 333 330 340 357 7 10 352 355 337 307 204 29 333 340 44 16 35 38 36 33 31 36 38 29 27 233 348 87 196 197 184 163
336 344 344 353 1 360 342 348 332 326 335 348 341 343 331 333 326 332 306 267 281 343 330 358 28 35 34 23 29 36 31 64 220 265 136 173 167 170
318 331 340 337 348 359 1 349 350 343 311 334 316 323 341 0 314 323 350 245 273 306 305 321 353 11 12 17 17 16 24 45 135 171 178 189 193 169
352 348 352 338 345 355 1 0 344 340 337 322 321 320 319 332 314 313 269 337 222 287 266 246 302 317 338 359 360 360 1 358 141 173 181 180 172 182
12 8 360 356 355 349 350 352 356 333 324 314 310 305 308 291 290 294 296 300 308 291 304 266 271 302 320 325 329 329 351 354 85 180 185 187 186 181
356 356 353 354 355 357 344 339 346 347 341 330 296 313 298 294 296 271 272 271 269 273 286 264 264 272 272 275 284 302 286 226 196 172 201 202 200 195
344 344 339 338 337 340 341 342 346 347 345 357 338 311 306 283 285 266 258 245 263 264 271 279 272 272 268 257 255 262 228 165 188 253 309 208 200 200
341 337 336 339 340 337 336 340 342 357 356 339 2 330 316 281 295 260 249 258 264 260 281 286 291 264 265 240 245 222 224 221 241 249 333 61 197 198
331 333 343 346 347 341 344 328 333 349 349 347 337 352 351 343 279 276 254 272 269 257 268 267 286 289 230 194 187 213 230 229 248 238 221 162 98 178
342 341 340 336 339 340 341 354 0 356 350 350 335 329 343 324 309 288 272 259 285 294 261 272 258 268 232 180 180 223 235 241 233 248 219 214 217 270
336 340 339 337 330 337 335 333 323 327 343 345 345 334 319 350 351 315 8 311 253 272 280 247 262 243 191 185 202 245 226 227 229 229 217 226 246 275
333 338 334 338 338 333 334 346 336 341 342 344 341 342 329 307 312 322 313 321 286 280 307 256 254 237 221 245 242 258 277 256 218 216 234 246 259 281
328 339 344 340 341 337 331 327 322 321 327 332 333 330 322 311 299 296 303 317 320 280 306 267 264 249 229 238 243 234 240 275 219 215 215 218 240 154
341 337 336 332 332 330 324 327 318 306 315 321 325 326 321 310 294 283 285 288 297 301 296 285 273 233 251 255 216 210 243 270 229 215 214 215 215 213
Wind_Speed_850mb
30 27 25 26 29 34 34 29 26 21 29 19 24 26 20 20 19 15 14 8 14 15 21 26 39 45 58 59 69 77 89 97 94 93 95 101 99 91
33 29 25 28 32 32 33 30 23 22 22 23 25 24 16 11 16 27 20 9 7 4 12 15 22 26 36 46 54 68 73 84 78 80 97 105 99 91
34 29 24 30 30 33 37 31 27 19 25 21 18 15 12 13 16 14 19 18 15 9 4 3 2 19 25 33 39 48 61 76 87 92 107 106 98 89
37 35 26 27 24 25 35 30 26 18 23 16 16 13 11 13 16 15 15 19 22 17 15 8 8 7 10 13 26 42 46 55 43 48 90 90 90 76
37 37 28 26 22 26 34 34 31 13 11 13 12 7 12 12 16 18 14 17 19 19 20 18 15 10 11 10 14 22 31 35 32 26 68 73 74 81
34 37 25 22 25 24 30 36 31 18 2 4 3 2 4 10 10 13 14 20 21 21 18 17 17 14 15 12 14 11 12 24 27 31 37 55 72 78
28 32 25 21 23 24 27 32 30 24 17 10 6 6 6 10 7 7 9 13 17 18 22 15 14 13 15 17 18 15 22 22 22 32 35 40 48 61
27 28 29 20 19 20 22 24 26 22 20 14 10 12 10 11 8 7 11 11 5 12 18 18 17 15 11 12 14 16 16 15 21 42 44 56 64 74
25 28 29 23 20 18 18 21 21 20 20 17 12 10 13 9 4 2 6 4 9 12 14 17 16 16 15 17 12 7 8 10 7 9 19 18 41 32
22 24 27 29 29 24 17 20 16 14 15 15 14 16 12 7 5 3 6 2 3 8 15 16 18 19 22 20 17 13 3 4 2 5 3 17 18 26
23 23 24 25 30 33 24 22 15 10 12 13 13 13 14 5 3 4 4 3 2 6 12 8 12 17 18 22 19 16 12 4 5 5 9 6 18 15
20 21 18 21 27 29 29 24 19 12 8 13 11 10 17 8 10 9 9 7 12 12 4 4 7 10 10 21 20 18 12 6 6 4 8 10 11 20
20 18 17 19 20 28 28 29 24 20 11 14 14 12 11 9 15 10 19 8 3 9 10 11 7 8 8 8 16 16 15 6 2 9 12 12 18 21
19 19 20 24 23 25 28 26 28 20 18 14 14 16 16 13 11 15 15 7 12 13 12 7 11 12 12 11 13 11 7 4 1 6 15 19 21 21
21 23 23 22 24 27 31 29 26 30 22 18 17 20 18 16 15 13 13 11 9 9 12 12 16 20 19 15 15 11 6 3 4 2 8 16 21 23
21 21 26 26 27 28 31 29 23 30 26 25 19 17 22 13 13 10 11 11 13 13 14 13 14 15 22 23 21 9 7 4 3 3 5 15 24 23
25 24 22 28 29 26 24 25 24 26 31 27 23 22 20 13 15 13 16 21 12 13 13 16 17 19 22 23 25 11 11 9 6 4 2 2 19 28
26 25 27 29 33 32 34 31 19 23 27 30 34 24 21 18 19 16 17 14 21 19 17 12 15 13 8 15 14 10 16 13 10 11 8 3 4 6
24 25 30 31 33 36 32 26 18 25 32 35 28 30 26 20 17 14 16 23 18 19 20 24 15 13 13 13 11 13 17 15 16 13 15 10 5 3
27 31 30 31 31 30 27 28 27 21 30 35 32 23 23 18 15 13 8 8 15 19 22 22 18 16 17 14 9 6 7 16 14 12 14 14 12 13
22 24 25 30 31 26 26 26 30 27 29 36 33 33 28 27 19 20 24 16 13 6 7 18 19 20 22 23 18 18 10 10 19 17 11 11 12 12
23 28 28 27 29 30 27 27 25 27 31 37 38 41 36 30 28 25 28 25 25 17 14 27 16 26 26 32 34 26 14 8 18 24 23 18 8 2
22 23 26 30 29 32 28 28 26 27 32 38 46 46 39 33 27 27 25 24 23 24 19 21 23 23 26 21 27 29 23 15 13 23 27 20 16 11
Wind_Direction_850mb
343 344 337 336 337 338 338 332 320 316 317 340 348 344 346 5 10 27 116 188 225 228 232 240 236 235 230 235 231 231 233 236 238 240 238 238 236 232
344 340 340 339 340 339 335 338 322 301 299 312 324 319 1 30 20 18 31 74 102 194 213 233 232 240 231 233 234 238 242 241 236 239 242 232 231 228
346 344 338 328 337 344 348 346 327 301 286 300 297 326 10 22 29 34 30 46 63 44 29 288 172 216 222 233 247 248 244 241 240 257 233 223 224 220
345 341 332 336 339 346 348 348 328 302 285 281 304 315 358 26 39 55 50 37 57 56 50 48 49 326 282 243 242 248 246 235 254 229 201 210 211 213
343 342 339 343 351 354 356 357 358 330 275 240 289 327 347 35 49 58 57 53 55 48 54 51 57 62 49 2 288 211 239 238 242 229 203 206 209 219
345 347 349 350 355 0 4 5 14 23 76 243 274 304 3 26 25 46 45 54 50 51 45 42 45 58 64 59 56 96 220 221 217 225 218 222 221 224
345 357 355 355 351 353 359 12 14 32 40 42 21 347 329 324 329 347 345 11 39 45 46 40 42 38 59 59 60 58 84 115 197 218 238 231 225 219
341 359 356 347 357 357 2 6 14 10 17 12 14 360 344 317 288 326 353 2 356 30 42 42 42 40 35 37 29 36 51 83 103 135 156 169 185 186
342 354 3 358 350 352 353 356 0 8 13 10 355 0 344 329 308 345 319 360 43 27 40 35 35 31 40 43 39 29 50 49 98 118 133 140 142 134
338 350 357 5 4 352 333 330 340 357 7 10 352 355 337 307 204 29 333 340 44 16 35 38 36 33 31 36 38 29 27 233 348 87 196 197 184 163
336 344 344 353 1 360 342 348 332 326 335 348 341 343 331 333 326 332 306 267 281 343 330 358 28 35 34 23 29 36 31 64 220 265 136 173 167 170
318 331 340 337 348 359 1 349 350 343 311 334 316 323 341 0 314 323 350 245 273 306 305 321 353 11 12 17 17 16 24 45 135 171 178 189 193 169
352 348 352 338 345 355 1 0 344 340 337 322 321 320 319 332 314 313 269 337 222 287 266 246 302 317 338 359 360 360 1 358 141 173 181 180 172 182
12 8 360 356 355 349 350 352 356 333 324 314 310 305 308 291 290 294 296 300 308 291 304 266 271 302 320 325 329 329 351 354 85 180 185 187 186 181
356 356 353 354 355 357 344 339 346 347 341 330 296 313 298 294 296 271 272 271 269 273 286 264 264 272 272 275 284 302 286 226 196 172 201 202 200 195
344 344 339 338 337 340 341 342 346 347 345 357 338 311 306 283 285 266 258 245 263 264 271 279 272 272 268 257 255 262 228 165 188 253 309 208 200 200
341 337 336 339 340 337 336 340 342 357 356 339 2 330 316 281 295 260 249 258 264 260 281 286 291 264 265 240 245 222 224 221 241 249 333 61 197 198
331 333 343 346 347 341 344 328 333 349 349 347 337 352 351 343 279 276 254 272 269 257 268 267 286 289 230 194 187 213 230 229 248 238 221 162 98 178
342 341 340 336 339 340 341 354 0 356 350 350 335 329 343 324 309 288 272 259 285 294 261 272 258 268 232 180 180 223 235 241 233 248 219 214 217 270
336 340 339 337 330 337 335 333 323 327 343 345 345 334 319 350 351 315 8 311 253 272 280 247 262 243 191 185 202 245 226 227 229 229 217 226 246 275
333 338 334 338 338 333 334 346 336 341 342 344 341 342 329 307 312 322 313 321 286 280 307 256 254 237 221 245 242 258 277 256 218 216 234 246 259 281
328 339 344 340 341 337 331 327 322 321 327 332 333 330 322 311 299 296 303 317 320 280 306 267 264 249 229 238 243 234 240 275 219 215 215 218 240 154
341 337 336 332 332 330 324 327 318 306 315 321 325 326 321 310 294 283 285 288 297 301 296 285 273 233 251 255 216 210 243 270 229 215 214 215 215 213